sat.trackr.live / text

‹ back to catalog

STARLINK-5001

NORAD 53924 · 2022-119AQ

PAYLOAD ACTIVE UNKNOWN

§ Identity

Operator
Country
US
Launch date
2022-09-24
Launch site
AFETR
Launch vehicle
Mass (kg)
RCS (m²)

Purposes: comms

External: N2YO · Heavens-Above · Gunter

§ Orbital elements

Epoch: 2026-09-20T22:22:18.947136Z

Period
94.33 min
Inclination
53.1588°
Eccentricity
0.0001379
Mean motion
15.26512598 rev/d
Perigee alt
485.3 km
Apogee alt
487.2 km
Semi-major
6,864.4 km
B*
-3.6907e-6
RAAN
129.0066°
Arg perigee
101.2809°
Mean anomaly
258.8345°
Rev number
22,170

§ Raw data

STARLINK-50011 53924U 22119AQ  26263.93216374 -.00000443  00000+0 -36907-5 0  99942 53924  53.1588 129.0066 0001379 101.2809 258.8345 15.26512598221701

JSON: /api/v1/satellites/53924 · /tle

For live sub-satellite position, see the globe view (requires WebGL).

§ Visibility from observer

Set your observer location to see the next 7 days of passes ≥ 10°. The values pass through the URL so the page stays shareable.

No JS? Fill the form by hand. The geolocation button needs JavaScript.